River,Well Number,Date,Time,Depth
I8 Inlet,4,12-Jun-07,21:00,0.104
I8 Inlet,4,12-Jun-07,21:10,0.104
I8 Inlet,4,12-Jun-07,21:20,0.103
I8 Inlet,4,12-Jun-07,21:30,0.104
I8 Inlet,4,12-Jun-07,21:40,0.103
I8 Inlet,4,12-Jun-07,21:50,0.101
I8 Inlet,4,12-Jun-07,22:00,0.101
I8 Inlet,4,12-Jun-07,22:10,0.101
I8 Inlet,4,12-Jun-07,22:20,0.102
I8 Inlet,4,12-Jun-07,22:30,0.101
I8 Inlet,4,12-Jun-07,22:40,0.102
I8 Inlet,4,12-Jun-07,22:50,0.102
I8 Inlet,4,12-Jun-07,23:00,0.101
I8 Inlet,4,12-Jun-07,23:10,0.102
I8 Inlet,4,12-Jun-07,23:20,0.101
I8 Inlet,4,12-Jun-07,23:30,0.101
I8 Inlet,4,12-Jun-07,23:40,0.101
I8 Inlet,4,12-Jun-07,23:50,0.103
I8 Inlet,4,13-Jun-07,00:00,0.101
I8 Inlet,4,13-Jun-07,00:10,0.101
I8 Inlet,4,13-Jun-07,00:20,0.103
I8 Inlet,4,13-Jun-07,00:30,0.102
I8 Inlet,4,13-Jun-07,00:40,0.1
I8 Inlet,4,13-Jun-07,00:50,0.103
I8 Inlet,4,13-Jun-07,01:00,0.1
I8 Inlet,4,13-Jun-07,01:10,0.099
I8 Inlet,4,13-Jun-07,01:20,0.1
I8 Inlet,4,13-Jun-07,01:30,0.101
I8 Inlet,4,13-Jun-07,01:40,0.101
I8 Inlet,4,13-Jun-07,01:50,0.099
I8 Inlet,4,13-Jun-07,02:00,0.1
I8 Inlet,4,13-Jun-07,02:10,0.099
I8 Inlet,4,13-Jun-07,02:20,0.1
I8 Inlet,4,13-Jun-07,02:30,0.099
I8 Inlet,4,13-Jun-07,02:40,0.099
I8 Inlet,4,13-Jun-07,02:50,0.099
I8 Inlet,4,13-Jun-07,03:00,0.099
I8 Inlet,4,13-Jun-07,03:10,0.101
I8 Inlet,4,13-Jun-07,03:20,0.099
I8 Inlet,4,13-Jun-07,03:30,0.1
I8 Inlet,4,13-Jun-07,03:40,0.101
I8 Inlet,4,13-Jun-07,03:50,0.099
I8 Inlet,4,13-Jun-07,04:00,0.102
I8 Inlet,4,13-Jun-07,04:10,0.1
I8 Inlet,4,13-Jun-07,04:20,0.099
I8 Inlet,4,13-Jun-07,04:30,0.1
I8 Inlet,4,13-Jun-07,04:40,0.101
I8 Inlet,4,13-Jun-07,04:50,0.099
I8 Inlet,4,13-Jun-07,05:00,0.099
I8 Inlet,4,13-Jun-07,05:10,0.1
I8 Inlet,4,13-Jun-07,05:20,0.1
I8 Inlet,4,13-Jun-07,05:30,0.099
I8 Inlet,4,13-Jun-07,05:40,0.099
I8 Inlet,4,13-Jun-07,05:50,0.098
I8 Inlet,4,13-Jun-07,06:00,0.098
I8 Inlet,4,13-Jun-07,06:10,0.098
I8 Inlet,4,13-Jun-07,06:20,0.099
I8 Inlet,4,13-Jun-07,06:30,0.098
I8 Inlet,4,13-Jun-07,06:40,0.1
I8 Inlet,4,13-Jun-07,06:50,0.097
I8 Inlet,4,13-Jun-07,07:00,0.098
I8 Inlet,4,13-Jun-07,07:10,0.096
I8 Inlet,4,13-Jun-07,07:20,0.098
I8 Inlet,4,13-Jun-07,07:30,0.097
I8 Inlet,4,13-Jun-07,07:40,0.094
I8 Inlet,4,13-Jun-07,07:50,0.093
I8 Inlet,4,13-Jun-07,08:00,0.092
I8 Inlet,4,13-Jun-07,08:10,0.094
I8 Inlet,4,13-Jun-07,08:20,0.095
I8 Inlet,4,13-Jun-07,08:30,0.096
I8 Inlet,4,13-Jun-07,08:40,0.096
I8 Inlet,4,13-Jun-07,08:50,0.097
I8 Inlet,4,13-Jun-07,09:00,0.097
I8 Inlet,4,13-Jun-07,09:10,0.097
I8 Inlet,4,13-Jun-07,09:20,0.094
I8 Inlet,4,13-Jun-07,09:30,0.096
I8 Inlet,4,13-Jun-07,09:40,0.096
I8 Inlet,4,13-Jun-07,09:50,0.097
I8 Inlet,4,13-Jun-07,10:00,0.095
I8 Inlet,4,13-Jun-07,10:10,0.095
I8 Inlet,4,13-Jun-07,10:20,0.093
I8 Inlet,4,13-Jun-07,10:30,0.094
I8 Inlet,4,13-Jun-07,10:40,0.093
I8 Inlet,4,13-Jun-07,10:50,0.092
I8 Inlet,4,13-Jun-07,11:00,0.092
I8 Inlet,4,13-Jun-07,11:10,0.093
I8 Inlet,4,13-Jun-07,11:20,0.091
I8 Inlet,4,13-Jun-07,11:30,0.092
I8 Inlet,4,13-Jun-07,11:40,0.092
I8 Inlet,4,13-Jun-07,11:50,0.092
I8 Inlet,4,13-Jun-07,12:00,0.093
I8 Inlet,4,13-Jun-07,12:10,0.092
I8 Inlet,4,13-Jun-07,12:20,0.091
I8 Inlet,4,13-Jun-07,12:30,0.092
I8 Inlet,4,13-Jun-07,12:40,0.093
I8 Inlet,4,13-Jun-07,12:50,0.093
I8 Inlet,4,13-Jun-07,13:00,0.093
I8 Inlet,4,13-Jun-07,13:10,0.092
I8 Inlet,4,13-Jun-07,13:20,0.094
I8 Inlet,4,13-Jun-07,13:30,0.094
I8 Inlet,4,13-Jun-07,13:40,0.093
I8 Inlet,4,13-Jun-07,13:50,0.091
I8 Inlet,4,13-Jun-07,14:00,0.091
I8 Inlet,4,13-Jun-07,14:10,0.092
I8 Inlet,4,13-Jun-07,14:20,0.092
I8 Inlet,4,13-Jun-07,14:30,0.093
I8 Inlet,4,13-Jun-07,14:40,0.091
I8 Inlet,4,13-Jun-07,14:50,0.09
I8 Inlet,4,13-Jun-07,15:00,0.091
I8 Inlet,4,13-Jun-07,15:10,0.092
I8 Inlet,4,13-Jun-07,15:20,0.089
I8 Inlet,4,13-Jun-07,15:30,0.091
I8 Inlet,4,13-Jun-07,15:40,0.089
I8 Inlet,4,13-Jun-07,15:50,0.089
I8 Inlet,4,13-Jun-07,16:00,0.088
I8 Inlet,4,13-Jun-07,16:10,0.09
I8 Inlet,4,13-Jun-07,16:20,0.091
I8 Inlet,4,13-Jun-07,16:30,0.091
I8 Inlet,4,13-Jun-07,16:40,0.094
I8 Inlet,4,13-Jun-07,16:50,0.094
I8 Inlet,4,13-Jun-07,17:00,0.095
I8 Inlet,4,13-Jun-07,17:10,0.096
I8 Inlet,4,13-Jun-07,17:20,0.096
I8 Inlet,4,13-Jun-07,17:30,0.093
I8 Inlet,4,13-Jun-07,17:40,0.091
I8 Inlet,4,13-Jun-07,17:50,0.092
I8 Inlet,4,13-Jun-07,18:00,0.095
I8 Inlet,4,13-Jun-07,18:10,0.095
I8 Inlet,4,13-Jun-07,18:20,0.095
I8 Inlet,4,13-Jun-07,18:30,0.094
I8 Inlet,4,13-Jun-07,18:40,0.094
I8 Inlet,4,13-Jun-07,18:50,0.096
I8 Inlet,4,13-Jun-07,19:00,0.096
I8 Inlet,4,13-Jun-07,19:10,0.095
I8 Inlet,4,13-Jun-07,19:20,0.097
I8 Inlet,4,13-Jun-07,19:30,0.097
I8 Inlet,4,13-Jun-07,19:40,0.094
I8 Inlet,4,13-Jun-07,19:50,0.096
I8 Inlet,4,13-Jun-07,20:00,0.096
I8 Inlet,4,13-Jun-07,20:10,0.093
I8 Inlet,4,13-Jun-07,20:20,0.092
I8 Inlet,4,13-Jun-07,20:30,0.093
I8 Inlet,4,13-Jun-07,20:40,0.094
I8 Inlet,4,13-Jun-07,20:50,0.095
I8 Inlet,4,13-Jun-07,21:00,0.098
I8 Inlet,4,13-Jun-07,21:10,0.096
I8 Inlet,4,13-Jun-07,21:20,0.095
I8 Inlet,4,13-Jun-07,21:30,0.095
I8 Inlet,4,13-Jun-07,21:40,0.096
I8 Inlet,4,13-Jun-07,21:50,0.091
I8 Inlet,4,13-Jun-07,22:00,0.093
I8 Inlet,4,13-Jun-07,22:10,0.091
I8 Inlet,4,13-Jun-07,22:20,0.091
I8 Inlet,4,13-Jun-07,22:30,0.096
I8 Inlet,4,13-Jun-07,22:40,0.098
I8 Inlet,4,13-Jun-07,22:50,0.098
I8 Inlet,4,13-Jun-07,23:00,0.097
I8 Inlet,4,13-Jun-07,23:10,0.096
I8 Inlet,4,13-Jun-07,23:20,0.096
I8 Inlet,4,13-Jun-07,23:30,0.099
I8 Inlet,4,13-Jun-07,23:40,0.097
I8 Inlet,4,13-Jun-07,23:50,0.097
I8 Inlet,4,14-Jun-07,00:00,0.097
I8 Inlet,4,14-Jun-07,00:10,0.097
I8 Inlet,4,14-Jun-07,00:20,0.096
I8 Inlet,4,14-Jun-07,00:30,0.096
I8 Inlet,4,14-Jun-07,00:40,0.098
I8 Inlet,4,14-Jun-07,00:50,0.096
I8 Inlet,4,14-Jun-07,01:00,0.096
I8 Inlet,4,14-Jun-07,01:10,0.097
I8 Inlet,4,14-Jun-07,01:20,0.098
I8 Inlet,4,14-Jun-07,01:30,0.096
I8 Inlet,4,14-Jun-07,01:40,0.097
I8 Inlet,4,14-Jun-07,01:50,0.098
I8 Inlet,4,14-Jun-07,02:00,0.096
I8 Inlet,4,14-Jun-07,02:10,0.095
I8 Inlet,4,14-Jun-07,02:20,0.097
I8 Inlet,4,14-Jun-07,02:30,0.096
I8 Inlet,4,14-Jun-07,02:40,0.096
I8 Inlet,4,14-Jun-07,02:50,0.098
I8 Inlet,4,14-Jun-07,03:00,0.096
I8 Inlet,4,14-Jun-07,03:10,0.096
I8 Inlet,4,14-Jun-07,03:20,0.098
I8 Inlet,4,14-Jun-07,03:30,0.098
I8 Inlet,4,14-Jun-07,03:40,0.096
I8 Inlet,4,14-Jun-07,03:50,0.097
I8 Inlet,4,14-Jun-07,04:00,0.096
I8 Inlet,4,14-Jun-07,04:10,0.096
I8 Inlet,4,14-Jun-07,04:20,0.096
I8 Inlet,4,14-Jun-07,04:30,0.095
I8 Inlet,4,14-Jun-07,04:40,0.096
I8 Inlet,4,14-Jun-07,04:50,0.097
I8 Inlet,4,14-Jun-07,05:00,0.096
I8 Inlet,4,14-Jun-07,05:10,0.095
I8 Inlet,4,14-Jun-07,05:20,0.097
I8 Inlet,4,14-Jun-07,05:30,0.094
I8 Inlet,4,14-Jun-07,05:40,0.094
I8 Inlet,4,14-Jun-07,05:50,0.095
I8 Inlet,4,14-Jun-07,06:00,0.093
I8 Inlet,4,14-Jun-07,06:10,0.092
I8 Inlet,4,14-Jun-07,06:20,0.092
I8 Inlet,4,14-Jun-07,06:30,0.091
I8 Inlet,4,14-Jun-07,06:40,0.09
I8 Inlet,4,14-Jun-07,06:50,0.094
I8 Inlet,4,14-Jun-07,07:00,0.091
I8 Inlet,4,14-Jun-07,07:10,0.096
I8 Inlet,4,14-Jun-07,07:20,0.092
I8 Inlet,4,14-Jun-07,07:30,0.091
I8 Inlet,4,14-Jun-07,07:40,0.09
I8 Inlet,4,14-Jun-07,07:50,0.092
I8 Inlet,4,14-Jun-07,08:00,0.089
I8 Inlet,4,14-Jun-07,08:10,0.092
I8 Inlet,4,14-Jun-07,08:20,0.092
I8 Inlet,4,14-Jun-07,08:30,0.09
I8 Inlet,4,14-Jun-07,08:40,0.09
I8 Inlet,4,14-Jun-07,08:50,0.093
I8 Inlet,4,14-Jun-07,09:00,0.091
I8 Inlet,4,14-Jun-07,09:10,0.09
I8 Inlet,4,14-Jun-07,09:20,0.09
I8 Inlet,4,14-Jun-07,09:30,0.089
I8 Inlet,4,14-Jun-07,09:40,0.092
I8 Inlet,4,14-Jun-07,09:50,0.091
I8 Inlet,4,14-Jun-07,10:00,0.09
I8 Inlet,4,14-Jun-07,10:10,0.088
I8 Inlet,4,14-Jun-07,10:20,0.088
I8 Inlet,4,14-Jun-07,10:30,0.088
I8 Inlet,4,14-Jun-07,10:40,0.089
I8 Inlet,4,14-Jun-07,10:50,0.093
I8 Inlet,4,14-Jun-07,11:00,0.09
I8 Inlet,4,14-Jun-07,11:10,0.09
I8 Inlet,4,14-Jun-07,11:20,0.089
I8 Inlet,4,14-Jun-07,11:30,0.089
I8 Inlet,4,14-Jun-07,11:40,0.088
I8 Inlet,4,14-Jun-07,11:50,0.089
I8 Inlet,4,14-Jun-07,12:00,0.088
I8 Inlet,4,14-Jun-07,12:10,0.088
I8 Inlet,4,14-Jun-07,12:20,0.089
I8 Inlet,4,14-Jun-07,12:30,0.089
I8 Inlet,4,14-Jun-07,12:40,0.086
I8 Inlet,4,14-Jun-07,12:50,0.09
I8 Inlet,4,14-Jun-07,13:00,0.091
I8 Inlet,4,14-Jun-07,13:10,0.09
I8 Inlet,4,14-Jun-07,13:20,0.092
I8 Inlet,4,14-Jun-07,13:30,0.091
I8 Inlet,4,14-Jun-07,13:40,0.092
I8 Inlet,4,14-Jun-07,13:50,0.092
I8 Inlet,4,14-Jun-07,14:00,0.091
I8 Inlet,4,14-Jun-07,14:10,0.091
I8 Inlet,4,14-Jun-07,14:20,0.089
I8 Inlet,4,14-Jun-07,14:30,0.089
I8 Inlet,4,14-Jun-07,14:40,0.09
I8 Inlet,4,14-Jun-07,14:50,0.089
I8 Inlet,4,14-Jun-07,15:00,0.091
I8 Inlet,4,14-Jun-07,15:10,0.09
I8 Inlet,4,14-Jun-07,15:20,0.092
I8 Inlet,4,14-Jun-07,15:30,0.091
I8 Inlet,4,14-Jun-07,15:40,0.091
I8 Inlet,4,14-Jun-07,15:50,0.092
I8 Inlet,4,14-Jun-07,16:00,0.091
I8 Inlet,4,14-Jun-07,16:10,0.091
I8 Inlet,4,14-Jun-07,16:20,0.089
I8 Inlet,4,14-Jun-07,16:30,0.092
I8 Inlet,4,14-Jun-07,16:40,0.094
I8 Inlet,4,14-Jun-07,16:50,0.09
I8 Inlet,4,14-Jun-07,17:00,0.09
I8 Inlet,4,14-Jun-07,17:10,0.09
I8 Inlet,4,14-Jun-07,17:20,0.09
I8 Inlet,4,14-Jun-07,17:30,0.092
I8 Inlet,4,14-Jun-07,17:40,0.092
I8 Inlet,4,14-Jun-07,17:50,0.092
I8 Inlet,4,14-Jun-07,18:00,0.091
I8 Inlet,4,14-Jun-07,18:10,0.093
I8 Inlet,4,14-Jun-07,18:20,0.091
I8 Inlet,4,14-Jun-07,18:30,0.091
I8 Inlet,4,14-Jun-07,18:40,0.091
I8 Inlet,4,14-Jun-07,18:50,0.09
I8 Inlet,4,14-Jun-07,19:00,0.093
I8 Inlet,4,14-Jun-07,19:10,0.091
I8 Inlet,4,14-Jun-07,19:20,0.092
I8 Inlet,4,14-Jun-07,19:30,0.091
I8 Inlet,4,14-Jun-07,19:40,0.091
I8 Inlet,4,14-Jun-07,19:50,0.092
I8 Inlet,4,14-Jun-07,20:00,0.09
I8 Inlet,4,14-Jun-07,20:10,0.092
I8 Inlet,4,14-Jun-07,20:20,0.092
I8 Inlet,4,14-Jun-07,20:30,0.093
I8 Inlet,4,14-Jun-07,20:40,0.092
I8 Inlet,4,14-Jun-07,20:50,0.092
I8 Inlet,4,14-Jun-07,21:00,0.092
I8 Inlet,4,14-Jun-07,21:10,0.092
I8 Inlet,4,14-Jun-07,21:20,0.091
I8 Inlet,4,14-Jun-07,21:30,0.092
I8 Inlet,4,14-Jun-07,21:40,0.09
I8 Inlet,4,14-Jun-07,21:50,0.091
I8 Inlet,4,14-Jun-07,22:00,0.093
I8 Inlet,4,14-Jun-07,22:10,0.093
I8 Inlet,4,14-Jun-07,22:20,0.091
I8 Inlet,4,14-Jun-07,22:30,0.091
I8 Inlet,4,14-Jun-07,22:40,0.091
I8 Inlet,4,14-Jun-07,22:50,0.092
I8 Inlet,4,14-Jun-07,23:00,0.092
I8 Inlet,4,14-Jun-07,23:10,0.093
I8 Inlet,4,14-Jun-07,23:20,0.093
I8 Inlet,4,14-Jun-07,23:30,0.093
I8 Inlet,4,14-Jun-07,23:40,0.09
I8 Inlet,4,14-Jun-07,23:50,0.088
I8 Inlet,4,15-Jun-07,00:00,0.087
I8 Inlet,4,15-Jun-07,00:10,0.089
I8 Inlet,4,15-Jun-07,00:20,0.084
I8 Inlet,4,15-Jun-07,00:30,0.087
I8 Inlet,4,15-Jun-07,00:40,0.089
I8 Inlet,4,15-Jun-07,00:50,0.09
I8 Inlet,4,15-Jun-07,01:00,0.091
I8 Inlet,4,15-Jun-07,01:10,0.091
I8 Inlet,4,15-Jun-07,01:20,0.091
I8 Inlet,4,15-Jun-07,01:30,0.091
I8 Inlet,4,15-Jun-07,01:40,0.093
I8 Inlet,4,15-Jun-07,01:50,0.094
I8 Inlet,4,15-Jun-07,02:00,0.094
I8 Inlet,4,15-Jun-07,02:10,0.092
I8 Inlet,4,15-Jun-07,02:20,0.095
I8 Inlet,4,15-Jun-07,02:30,0.094
I8 Inlet,4,15-Jun-07,02:40,0.093
I8 Inlet,4,15-Jun-07,02:50,0.092
I8 Inlet,4,15-Jun-07,03:00,0.094
I8 Inlet,4,15-Jun-07,03:10,0.092
I8 Inlet,4,15-Jun-07,03:20,0.093
I8 Inlet,4,15-Jun-07,03:30,0.093
I8 Inlet,4,15-Jun-07,03:40,0.094
I8 Inlet,4,15-Jun-07,03:50,0.094
I8 Inlet,4,15-Jun-07,04:00,0.093
I8 Inlet,4,15-Jun-07,04:10,0.094
I8 Inlet,4,15-Jun-07,04:20,0.092
I8 Inlet,4,15-Jun-07,04:30,0.093
I8 Inlet,4,15-Jun-07,04:40,0.093
I8 Inlet,4,15-Jun-07,04:50,0.096
I8 Inlet,4,15-Jun-07,05:00,0.094
I8 Inlet,4,15-Jun-07,05:10,0.092
I8 Inlet,4,15-Jun-07,05:20,0.093
I8 Inlet,4,15-Jun-07,05:30,0.091
I8 Inlet,4,15-Jun-07,05:40,0.091
I8 Inlet,4,15-Jun-07,05:50,0.09
I8 Inlet,4,15-Jun-07,06:00,0.091
I8 Inlet,4,15-Jun-07,06:10,0.091
I8 Inlet,4,15-Jun-07,06:20,0.091
I8 Inlet,4,15-Jun-07,06:30,0.092
I8 Inlet,4,15-Jun-07,06:40,0.089
I8 Inlet,4,15-Jun-07,06:50,0.089
I8 Inlet,4,15-Jun-07,07:00,0.089
I8 Inlet,4,15-Jun-07,07:10,0.09
I8 Inlet,4,15-Jun-07,07:20,0.089
I8 Inlet,4,15-Jun-07,07:30,0.089
I8 Inlet,4,15-Jun-07,07:40,0.086
I8 Inlet,4,15-Jun-07,07:50,0.087
I8 Inlet,4,15-Jun-07,08:00,0.087
I8 Inlet,4,15-Jun-07,08:10,0.086
I8 Inlet,4,15-Jun-07,08:20,0.085
I8 Inlet,4,15-Jun-07,08:30,0.087
I8 Inlet,4,15-Jun-07,08:40,0.087
I8 Inlet,4,15-Jun-07,08:50,0.089
I8 Inlet,4,15-Jun-07,09:00,0.088
I8 Inlet,4,15-Jun-07,09:10,0.088
I8 Inlet,4,15-Jun-07,09:20,0.085
I8 Inlet,4,15-Jun-07,09:30,0.088
I8 Inlet,4,15-Jun-07,09:40,0.087
I8 Inlet,4,15-Jun-07,09:50,0.089
I8 Inlet,4,15-Jun-07,10:00,0.088
I8 Inlet,4,15-Jun-07,10:10,0.09
I8 Inlet,4,15-Jun-07,10:20,0.087
I8 Inlet,4,15-Jun-07,10:30,0.086
I8 Inlet,4,15-Jun-07,10:40,0.087
I8 Inlet,4,15-Jun-07,10:50,0.086
I8 Inlet,4,15-Jun-07,11:00,0.087
I8 Inlet,4,15-Jun-07,11:10,0.087
I8 Inlet,4,15-Jun-07,11:20,0.087
I8 Inlet,4,15-Jun-07,11:30,0.086
I8 Inlet,4,15-Jun-07,11:40,0.088
I8 Inlet,4,15-Jun-07,11:50,0.089
I8 Inlet,4,15-Jun-07,12:00,0.089
I8 Inlet,4,15-Jun-07,12:10,0.089
I8 Inlet,4,15-Jun-07,12:20,0.088
I8 Inlet,4,15-Jun-07,12:30,0.091
I8 Inlet,4,15-Jun-07,12:40,0.088
I8 Inlet,4,15-Jun-07,12:50,0.091
I8 Inlet,4,15-Jun-07,13:00,0.092
I8 Inlet,4,15-Jun-07,13:10,0.092
I8 Inlet,4,15-Jun-07,13:20,0.093
I8 Inlet,4,15-Jun-07,13:30,0.091
I8 Inlet,4,15-Jun-07,13:40,0.091
I8 Inlet,4,15-Jun-07,13:50,0.089
I8 Inlet,4,15-Jun-07,14:00,0.09
I8 Inlet,4,15-Jun-07,14:10,0.089
I8 Inlet,4,15-Jun-07,14:20,0.089
I8 Inlet,4,15-Jun-07,14:30,0.087
I8 Inlet,4,15-Jun-07,14:40,0.086
I8 Inlet,4,15-Jun-07,14:50,0.085
I8 Inlet,4,15-Jun-07,15:00,0.085
I8 Inlet,4,15-Jun-07,15:10,0.087
I8 Inlet,4,15-Jun-07,15:20,0.083
I8 Inlet,4,15-Jun-07,15:30,0.086
I8 Inlet,4,15-Jun-07,15:40,0.087
I8 Inlet,4,15-Jun-07,15:50,0.084
I8 Inlet,4,15-Jun-07,16:00,0.085
I8 Inlet,4,15-Jun-07,16:10,0.085
I8 Inlet,4,15-Jun-07,16:20,0.084
I8 Inlet,4,15-Jun-07,16:30,0.087
I8 Inlet,4,15-Jun-07,16:40,0.085
I8 Inlet,4,15-Jun-07,16:50,0.087
I8 Inlet,4,15-Jun-07,17:00,0.087
I8 Inlet,4,15-Jun-07,17:10,0.085
I8 Inlet,4,15-Jun-07,17:20,0.086
I8 Inlet,4,15-Jun-07,17:30,0.09
I8 Inlet,4,15-Jun-07,17:40,0.089
I8 Inlet,4,15-Jun-07,17:50,0.09
I8 Inlet,4,15-Jun-07,18:00,0.09
I8 Inlet,4,15-Jun-07,18:10,0.088
I8 Inlet,4,15-Jun-07,18:20,0.088
I8 Inlet,4,15-Jun-07,18:30,0.087
I8 Inlet,4,15-Jun-07,18:40,0.086
I8 Inlet,4,15-Jun-07,18:50,0.086
I8 Inlet,4,15-Jun-07,19:00,0.09
I8 Inlet,4,15-Jun-07,19:10,0.089
I8 Inlet,4,15-Jun-07,19:20,0.09
I8 Inlet,4,15-Jun-07,19:30,0.092
I8 Inlet,4,15-Jun-07,19:40,0.091
I8 Inlet,4,15-Jun-07,19:50,0.093
I8 Inlet,4,15-Jun-07,20:00,0.091
I8 Inlet,4,15-Jun-07,20:10,0.092
I8 Inlet,4,15-Jun-07,20:20,0.091
I8 Inlet,4,15-Jun-07,20:30,0.09
I8 Inlet,4,15-Jun-07,20:40,0.092
I8 Inlet,4,15-Jun-07,20:50,0.096
I8 Inlet,4,15-Jun-07,21:00,0.093
I8 Inlet,4,15-Jun-07,21:10,0.095
I8 Inlet,4,15-Jun-07,21:20,0.094
I8 Inlet,4,15-Jun-07,21:30,0.093
I8 Inlet,4,15-Jun-07,21:40,0.091
I8 Inlet,4,15-Jun-07,21:50,0.091
I8 Inlet,4,15-Jun-07,22:00,0.09
I8 Inlet,4,15-Jun-07,22:10,0.09
I8 Inlet,4,15-Jun-07,22:20,0.09
I8 Inlet,4,15-Jun-07,22:30,0.091
I8 Inlet,4,15-Jun-07,22:40,0.093
I8 Inlet,4,15-Jun-07,22:50,0.092
I8 Inlet,4,15-Jun-07,23:00,0.094
I8 Inlet,4,15-Jun-07,23:10,0.092
I8 Inlet,4,15-Jun-07,23:20,0.094
I8 Inlet,4,15-Jun-07,23:30,0.093
I8 Inlet,4,15-Jun-07,23:40,0.093
I8 Inlet,4,15-Jun-07,23:50,0.094
I8 Inlet,4,16-Jun-07,00:00,0.093
I8 Inlet,4,16-Jun-07,00:10,0.093
I8 Inlet,4,16-Jun-07,00:20,0.095
I8 Inlet,4,16-Jun-07,00:30,0.093
I8 Inlet,4,16-Jun-07,00:40,0.095
I8 Inlet,4,16-Jun-07,00:50,0.095
I8 Inlet,4,16-Jun-07,01:00,0.098
I8 Inlet,4,16-Jun-07,01:10,0.097
I8 Inlet,4,16-Jun-07,01:20,0.097
I8 Inlet,4,16-Jun-07,01:30,0.095
I8 Inlet,4,16-Jun-07,01:40,0.097
I8 Inlet,4,16-Jun-07,01:50,0.097
I8 Inlet,4,16-Jun-07,02:00,0.098
I8 Inlet,4,16-Jun-07,02:10,0.095
I8 Inlet,4,16-Jun-07,02:20,0.097
I8 Inlet,4,16-Jun-07,02:30,0.097
I8 Inlet,4,16-Jun-07,02:40,0.095
I8 Inlet,4,16-Jun-07,02:50,0.096
I8 Inlet,4,16-Jun-07,03:00,0.097
I8 Inlet,4,16-Jun-07,03:10,0.094
I8 Inlet,4,16-Jun-07,03:20,0.096
I8 Inlet,4,16-Jun-07,03:30,0.095
I8 Inlet,4,16-Jun-07,03:40,0.096
I8 Inlet,4,16-Jun-07,03:50,0.095
I8 Inlet,4,16-Jun-07,04:00,0.094
I8 Inlet,4,16-Jun-07,04:10,0.094
I8 Inlet,4,16-Jun-07,04:20,0.094
I8 Inlet,4,16-Jun-07,04:30,0.096
I8 Inlet,4,16-Jun-07,04:40,0.096
I8 Inlet,4,16-Jun-07,04:50,0.093
I8 Inlet,4,16-Jun-07,05:00,0.091
I8 Inlet,4,16-Jun-07,05:10,0.092
I8 Inlet,4,16-Jun-07,05:20,0.092
I8 Inlet,4,16-Jun-07,05:30,0.093
I8 Inlet,4,16-Jun-07,05:40,0.091
I8 Inlet,4,16-Jun-07,05:50,0.09
I8 Inlet,4,16-Jun-07,06:00,0.088
I8 Inlet,4,16-Jun-07,06:10,0.09
I8 Inlet,4,16-Jun-07,06:20,0.09
I8 Inlet,4,16-Jun-07,06:30,0.091
I8 Inlet,4,16-Jun-07,06:40,0.09
I8 Inlet,4,16-Jun-07,06:50,0.089
I8 Inlet,4,16-Jun-07,07:00,0.09
I8 Inlet,4,16-Jun-07,07:10,0.089
I8 Inlet,4,16-Jun-07,07:20,0.091
I8 Inlet,4,16-Jun-07,07:30,0.09
I8 Inlet,4,16-Jun-07,07:40,0.091
I8 Inlet,4,16-Jun-07,07:50,0.09
I8 Inlet,4,16-Jun-07,08:00,0.09
I8 Inlet,4,16-Jun-07,08:10,0.089
I8 Inlet,4,16-Jun-07,08:20,0.088
I8 Inlet,4,16-Jun-07,08:30,0.091
I8 Inlet,4,16-Jun-07,08:40,0.089
I8 Inlet,4,16-Jun-07,08:50,0.09
I8 Inlet,4,16-Jun-07,09:00,0.088
I8 Inlet,4,16-Jun-07,09:10,0.09
I8 Inlet,4,16-Jun-07,09:20,0.089
I8 Inlet,4,16-Jun-07,09:30,0.089
I8 Inlet,4,16-Jun-07,09:40,0.089
I8 Inlet,4,16-Jun-07,09:50,0.09
I8 Inlet,4,16-Jun-07,10:00,0.089
I8 Inlet,4,16-Jun-07,10:10,0.089
I8 Inlet,4,16-Jun-07,10:20,0.091
I8 Inlet,4,16-Jun-07,10:30,0.09
I8 Inlet,4,16-Jun-07,10:40,0.089
I8 Inlet,4,16-Jun-07,10:50,0.09
I8 Inlet,4,16-Jun-07,11:00,0.089
I8 Inlet,4,16-Jun-07,11:10,0.093
I8 Inlet,4,16-Jun-07,11:20,0.093
I8 Inlet,4,16-Jun-07,11:30,0.093
I8 Inlet,4,16-Jun-07,11:40,0.093
I8 Inlet,4,16-Jun-07,11:50,0.09
I8 Inlet,4,16-Jun-07,12:00,0.091
I8 Inlet,4,16-Jun-07,12:10,0.089
I8 Inlet,4,16-Jun-07,12:20,0.089
I8 Inlet,4,16-Jun-07,12:30,0.091
I8 Inlet,4,16-Jun-07,12:40,0.092
I8 Inlet,4,16-Jun-07,12:50,0.09
I8 Inlet,4,16-Jun-07,13:00,0.091
I8 Inlet,4,16-Jun-07,13:10,0.089
I8 Inlet,4,16-Jun-07,13:20,0.091
I8 Inlet,4,16-Jun-07,13:30,0.093
I8 Inlet,4,16-Jun-07,13:40,0.093
I8 Inlet,4,16-Jun-07,13:50,0.098
I8 Inlet,4,16-Jun-07,14:00,0.098
I8 Inlet,4,16-Jun-07,14:10,0.098
I8 Inlet,4,16-Jun-07,14:20,0.098
I8 Inlet,4,16-Jun-07,14:30,0.099
I8 Inlet,4,16-Jun-07,14:40,0.097
I8 Inlet,4,16-Jun-07,14:50,0.096
I8 Inlet,4,16-Jun-07,15:00,0.099
I8 Inlet,4,16-Jun-07,15:10,0.097
I8 Inlet,4,16-Jun-07,15:20,0.101
I8 Inlet,4,16-Jun-07,15:30,0.101
I8 Inlet,4,16-Jun-07,15:40,0.101
I8 Inlet,4,16-Jun-07,15:50,0.099
I8 Inlet,4,16-Jun-07,16:00,0.099
I8 Inlet,4,16-Jun-07,16:10,0.105
I8 Inlet,4,16-Jun-07,16:20,0.101
I8 Inlet,4,16-Jun-07,16:30,0.104
I8 Inlet,4,16-Jun-07,16:40,0.102
I8 Inlet,4,16-Jun-07,16:50,0.104
I8 Inlet,4,16-Jun-07,17:00,0.103
I8 Inlet,4,16-Jun-07,17:10,0.102
I8 Inlet,4,16-Jun-07,17:20,0.102
I8 Inlet,4,16-Jun-07,17:30,0.102
I8 Inlet,4,16-Jun-07,17:40,0.103
I8 Inlet,4,16-Jun-07,17:50,0.103
I8 Inlet,4,16-Jun-07,18:00,0.101
I8 Inlet,4,16-Jun-07,18:10,0.102
I8 Inlet,4,16-Jun-07,18:20,0.102
I8 Inlet,4,16-Jun-07,18:30,0.102
I8 Inlet,4,16-Jun-07,18:40,0.103
I8 Inlet,4,16-Jun-07,18:50,0.101
I8 Inlet,4,16-Jun-07,19:00,0.099
I8 Inlet,4,16-Jun-07,19:10,0.1
I8 Inlet,4,16-Jun-07,19:20,0.098
I8 Inlet,4,16-Jun-07,19:30,0.097
I8 Inlet,4,16-Jun-07,19:40,0.096
I8 Inlet,4,16-Jun-07,19:50,0.097
I8 Inlet,4,16-Jun-07,20:00,0.097
I8 Inlet,4,16-Jun-07,20:10,0.099
I8 Inlet,4,16-Jun-07,20:20,0.1
I8 Inlet,4,16-Jun-07,20:30,0.101
I8 Inlet,4,16-Jun-07,20:40,0.1
I8 Inlet,4,16-Jun-07,20:50,0.099
I8 Inlet,4,16-Jun-07,21:00,0.098
I8 Inlet,4,16-Jun-07,21:10,0.098
I8 Inlet,4,16-Jun-07,21:20,0.1
I8 Inlet,4,16-Jun-07,21:30,0.099
I8 Inlet,4,16-Jun-07,21:40,0.098
I8 Inlet,4,16-Jun-07,21:50,0.1
I8 Inlet,4,16-Jun-07,22:00,0.099
I8 Inlet,4,16-Jun-07,22:10,0.099
I8 Inlet,4,16-Jun-07,22:20,0.102
I8 Inlet,4,16-Jun-07,22:30,0.103
I8 Inlet,4,16-Jun-07,22:40,0.105
I8 Inlet,4,16-Jun-07,22:50,0.108
I8 Inlet,4,16-Jun-07,23:00,0.109
I8 Inlet,4,16-Jun-07,23:10,0.109
I8 Inlet,4,16-Jun-07,23:20,0.108
I8 Inlet,4,16-Jun-07,23:30,0.112
I8 Inlet,4,16-Jun-07,23:40,0.112
I8 Inlet,4,16-Jun-07,23:50,0.114
I8 Inlet,4,17-Jun-07,00:00,0.118
I8 Inlet,4,17-Jun-07,00:10,0.125
I8 Inlet,4,17-Jun-07,00:20,0.129
I8 Inlet,4,17-Jun-07,00:30,0.132
I8 Inlet,4,17-Jun-07,00:40,0.136
I8 Inlet,4,17-Jun-07,00:50,0.141
I8 Inlet,4,17-Jun-07,01:00,0.144
I8 Inlet,4,17-Jun-07,01:10,0.147
I8 Inlet,4,17-Jun-07,01:20,0.153
I8 Inlet,4,17-Jun-07,01:30,0.159
I8 Inlet,4,17-Jun-07,01:40,0.163
I8 Inlet,4,17-Jun-07,01:50,0.169
I8 Inlet,4,17-Jun-07,02:00,0.176
I8 Inlet,4,17-Jun-07,02:10,0.18
I8 Inlet,4,17-Jun-07,02:20,0.19
I8 Inlet,4,17-Jun-07,02:30,0.199
I8 Inlet,4,17-Jun-07,02:40,0.207
I8 Inlet,4,17-Jun-07,02:50,0.212
I8 Inlet,4,17-Jun-07,03:00,0.223
I8 Inlet,4,17-Jun-07,03:10,0.231
I8 Inlet,4,17-Jun-07,03:20,0.24
I8 Inlet,4,17-Jun-07,03:30,0.249
I8 Inlet,4,17-Jun-07,03:40,0.252
I8 Inlet,4,17-Jun-07,03:50,0.26
I8 Inlet,4,17-Jun-07,04:00,0.265
I8 Inlet,4,17-Jun-07,04:10,0.272
I8 Inlet,4,17-Jun-07,04:20,0.279
I8 Inlet,4,17-Jun-07,04:30,0.284
I8 Inlet,4,17-Jun-07,04:40,0.287
I8 Inlet,4,17-Jun-07,04:50,0.292
I8 Inlet,4,17-Jun-07,05:00,0.296
I8 Inlet,4,17-Jun-07,05:10,0.301
I8 Inlet,4,17-Jun-07,05:20,0.307
I8 Inlet,4,17-Jun-07,05:30,0.316
I8 Inlet,4,17-Jun-07,05:40,0.324
I8 Inlet,4,17-Jun-07,05:50,0.334
I8 Inlet,4,17-Jun-07,06:00,0.341
I8 Inlet,4,17-Jun-07,06:10,0.349
I8 Inlet,4,17-Jun-07,06:20,0.357
I8 Inlet,4,17-Jun-07,06:30,0.366
I8 Inlet,4,17-Jun-07,06:40,0.375
I8 Inlet,4,17-Jun-07,06:50,0.384
I8 Inlet,4,17-Jun-07,07:00,0.394
I8 Inlet,4,17-Jun-07,07:10,0.403
I8 Inlet,4,17-Jun-07,07:20,0.413
I8 Inlet,4,17-Jun-07,07:30,0.427
I8 Inlet,4,17-Jun-07,07:40,0.435
I8 Inlet,4,17-Jun-07,07:50,0.447
I8 Inlet,4,17-Jun-07,08:00,0.453
I8 Inlet,4,17-Jun-07,08:10,0.462
I8 Inlet,4,17-Jun-07,08:20,0.474
I8 Inlet,4,17-Jun-07,08:30,0.483
I8 Inlet,4,17-Jun-07,08:40,0.488
I8 Inlet,4,17-Jun-07,08:50,0.496
I8 Inlet,4,17-Jun-07,09:00,0.506
I8 Inlet,4,17-Jun-07,09:10,0.515
I8 Inlet,4,17-Jun-07,09:20,0.518
I8 Inlet,4,17-Jun-07,09:30,0.525
I8 Inlet,4,17-Jun-07,09:40,0.534
I8 Inlet,4,17-Jun-07,09:50,0.542
I8 Inlet,4,17-Jun-07,10:00,0.549
I8 Inlet,4,17-Jun-07,10:10,0.555
I8 Inlet,4,17-Jun-07,10:20,0.564
I8 Inlet,4,17-Jun-07,10:30,0.57
I8 Inlet,4,17-Jun-07,10:40,0.577
I8 Inlet,4,17-Jun-07,10:50,0.585
I8 Inlet,4,17-Jun-07,11:00,0.589
I8 Inlet,4,17-Jun-07,11:10,0.591
I8 Inlet,4,17-Jun-07,11:20,0.596
I8 Inlet,4,17-Jun-07,11:30,0.604
I8 Inlet,4,17-Jun-07,11:40,0.61
I8 Inlet,4,17-Jun-07,11:50,0.615
I8 Inlet,4,17-Jun-07,12:00,0.622
I8 Inlet,4,17-Jun-07,12:10,0.63
I8 Inlet,4,17-Jun-07,12:20,0.635
I8 Inlet,4,17-Jun-07,12:30,0.64
I8 Inlet,4,17-Jun-07,12:40,0.645
I8 Inlet,4,17-Jun-07,12:50,0.651
I8 Inlet,4,17-Jun-07,13:00,0.655
I8 Inlet,4,17-Jun-07,13:10,0.664
I8 Inlet,4,17-Jun-07,13:20,0.671
I8 Inlet,4,17-Jun-07,13:30,0.676
I8 Inlet,4,17-Jun-07,13:40,0.681
I8 Inlet,4,17-Jun-07,13:50,0.69
I8 Inlet,4,17-Jun-07,14:00,0.696
I8 Inlet,4,17-Jun-07,14:10,0.703
I8 Inlet,4,17-Jun-07,14:20,0.71
I8 Inlet,4,17-Jun-07,14:30,0.718
I8 Inlet,4,17-Jun-07,14:40,0.723
I8 Inlet,4,17-Jun-07,14:50,0.733
I8 Inlet,4,17-Jun-07,15:00,0.734
I8 Inlet,4,17-Jun-07,15:10,0.739
I8 Inlet,4,17-Jun-07,15:20,0.744
I8 Inlet,4,17-Jun-07,15:30,0.752
I8 Inlet,4,17-Jun-07,15:40,0.76
I8 Inlet,4,17-Jun-07,15:50,0.766
I8 Inlet,4,17-Jun-07,16:00,0.774
I8 Inlet,4,17-Jun-07,16:10,0.78
I8 Inlet,4,17-Jun-07,16:20,0.784
I8 Inlet,4,17-Jun-07,16:30,0.791
I8 Inlet,4,17-Jun-07,16:40,0.801
I8 Inlet,4,17-Jun-07,16:50,0.806
I8 Inlet,4,17-Jun-07,17:00,0.815
I8 Inlet,4,17-Jun-07,17:10,0.821
I8 Inlet,4,17-Jun-07,17:20,0.829
I8 Inlet,4,17-Jun-07,17:30,0.837
I8 Inlet,4,17-Jun-07,17:40,0.843
I8 Inlet,4,17-Jun-07,17:50,0.849
I8 Inlet,4,17-Jun-07,18:00,0.859
I8 Inlet,4,17-Jun-07,18:10,0.868
I8 Inlet,4,17-Jun-07,18:20,0.88
I8 Inlet,4,17-Jun-07,18:30,0.891
I8 Inlet,4,17-Jun-07,18:40,0.9